Weather Roundup
Issued by NWS Chicago, IL

Home | Current Version | Previous Version | Graphics & Text | Print | Product List | Glossary On
Versions: 1 2 3 4 5 6 7 8 9 10 11 12 13 14 15 16 17 18 19 20 21 22 23 24 25 26 27 28 29 30 31 32 33 34 35 36 37 38 39 40 41 42 43 44 45 46 47 48 49 50
000
NZUS59 KLOT 221558
HRRLOT

CHICAGO AREA WEATHER ROUNDUP
NATIONAL WEATHER SERVICE CHICAGO/ROMEOVILLE IL
1000 AM CST MON DEC 22 2014

NOTE: "FAIR" INDICATES FEW OR NO CLOUDS BELOW 12,000 FEET WITH NO
SIGNIFICANT WEATHER AND/OR OBSTRUCTIONS TO VISIBILITY.

* THESE STATIONS ARE NOT UNDER NWS QUALITY CONTROL. THEY ALSO MAY NOT
  REPORT WEATHER SUCH AS PRECIPITATION OR FOG.

ILZ005-006-012>014-019>023-221700-
NORTHEAST ILLINOIS

CITY           SKY/WX    TMP DP  RH WIND       PRES   REMARKS
OHARE          CLOUDY    35  27  72 E7        29.87F WCI  29
MIDWAY         CLOUDY    36  28  73 SE10      29.89F
AURORA         CLOUDY    35  27  72 SE12      29.86F HAZE    WCI  27
WAUKEGAN       CLOUDY    35  30  82 SE10      29.89S HAZE    WCI  27
DUPAGE AIRPORT CLOUDY    35  27  72 SE8       29.86F WCI  29
WHEELING       CLOUDY    34  28  79 E7        29.90F HAZE    WCI  28
NORTHERLY IS     N/A     34  29  82 SE12        N/A  WCI  25
$$

WIZ051-052-058>065-066-070>072-221700-
SOUTHEAST WISCONSIN

CITY           SKY/WX    TMP DP  RH WIND       PRES   REMARKS
MILWAUKEE      CLOUDY    37  31  78 SE14      29.90S HAZE
KENOSHA*       CLOUDY    36  32  85 SE13      29.89F FOG
RACINE*        CLOUDY    37  31  78 SE13G22   29.92F HAZE
WAUKESHA       CLOUDY    34  30  86 SE7       29.89F FOG     WCI  28
$$

INZ001>003-010>013-019-020-221700-
NORTHWEST INDIANA

CITY           SKY/WX    TMP DP  RH WIND       PRES   REMARKS
GARY*          CLOUDY    36  25  64 SE9       29.90F
MICHIGAN CITY* NOT AVBL
RENSSELAER*    NOT AVBL
$$

LMZ740>746-221700-
SOUTHERN LAKE MICHIGAN

STATION/POSITION TIME  SKY/WX   TEMP WIND        PRES    VSBY
                                AIR  DIR/SP/G
                 (UTC)          (F)  (DEG/KT/KT) (MB)    (MI)
HARRISON CRIB    1500            33  150/ 14/ 18   N/A
BURNHAM HARBOR   1500            33  120/ 13       N/A
CALUMET HARBOR   1500            34  110/  9/ 12 1011.3F
BURNS HARBOR     NOT AVBL
MICHIGAN CITY    NOT AVBL
$$

ABBREVIATIONS USED IN REMARKS
   TC - TEMPERATURE IN CELSIUS
  WCI - WIND CHILL INDEX
   HX - HEAT INDEX
  VSB - VISIBILITY
$$



USA.gov is the U.S. government's official web portal to all federal, state and local government web resources and services.